Location: Unspecified
(0.0000°N, 0.0000°E)
Time: 22:21:25
(UTC+00:00)

S-56A Canister/Altair - Pass Details

Date: 14 December 2018
Orbit: 633 x 2500 km, 38.9° (Epoch: 18 January)

Event Time Altitude Azimuth Distance (km) Brightness Sun altitude
Rises 12:13:06 0° 303° (WNW) 6,086 12.0 66.3°
Reaches altitude 10° 12:17:24 10° 300° (WNW) 4,951 11.7 66.1°
Maximum altitude 12:30:43 58° 225° (SW) 2,123 11.9 65.2°
Drops below altitude 10° 12:39:58 10° 147° (SSE) 3,525 11.3 64.3°
Sets 12:42:33 0° 142° (SE) 4,276 11.5 64.0°
